Погода в Боунессе-он-Уиндермире

Великобритания     54°21′52″N   2°55′09″W
темп.,
°C
ветер,
м/с
пор.,
м/с
влажн.,
%
обл.,
%
осадки,
мм/ч
давл.,
гПа
погр.,
м
25 октября, пн
пн2501:00+12юз9138829 2.8 1008766
04:00+10зюз6128815 0.7 1008657
07:00+10зюз6128581 1.0 1008573
10:00+10зюз6118099 0.6 1009944
13:00+12зюз710775 0.9 10101126
16:00+11зюз610772 0.4 1010965
19:00+9з4108389 1.0 1011451
22:00+8зюз398845 0.3 1012279
26 октября, вт
вт2601:00+9зюз4989100 0.8 1013305
04:00+10зюз51087100 0.3 1012473
07:00+11ююз61290100 0.5 1012720
10:00+11ююз71495100 2.5 1011975
13:00+13юз91494100 7.6 1011775
16:00+14юз81391100 0.2 1010795
19:00+14ююз81590100 0.3 1010958
22:00+14ююз81790100 0.1 10101051
27 октября, ср
ср2701:00+14юз111991100 0.1 10091018
04:00+14юз111991100 0.0 1008953
07:00+14юз111987100 0.6 10081095
10:00+14ююз101892100 1.3 10081048
13:00+14ююз112091100 2.9 10071069
16:00+14ююз112191100 3.1 10051172
19:00+14ююз101994100 13.6 10051104
22:00+14ююз91698100 6.0 1005987
28 октября, чт
чт2801:00+13юз81398100 21.0 1004801
04:00+13юз51197100 3.8 1004567
07:00+12з4893100 6.3 1005561
10:00+12ююз1288100 0.0 1006114
13:00+12ю1285100 0.0 1005364
16:00+12ю1286100 0.0 1004261
19:00+10св1193100 0.3 100242
22:00+10св2395100 1.1 999114
29 октября, пт
пт2901:00+10с3497100 5.3 996151
04:00+10в2395100 2.1 994175
07:00+11ююв4109383 3.0 992486
10:00+11ю8128848 1.8 991817
13:00+10з101391100 2.8 992982
16:00+9з8138288 0.5 9951123
19:00+9зюз713811 0.8 997740
22:00+9зюз712845 1.2 997653